Date String (YYYY-MM-DD hh:mm:ss) UTC,Instrument flags,Ambient pressure (hPa),Sample flow (lpm),Bypass flow (lpm),Sample temperature (°C),Ambient temperature (°C),ASC tube jacket temperature (°C),LED temperature (°C),Box temperature (°C),Sample RH (%),Span deviation,Mass concentration (μg/m³),Mass concentration (μg/m³),Mass concentration (μg/m³)
DateTimeUTC,F1_M11,P_M11,Q1_M11,Q2_M11,T1_M11,T2_M11,T3_M11,T4_M11,T5_M11,U1_M11,ZSPAN_M11,X0_M11,X2_M11,X1_M11
2021-09-27 02:00:00,,0825.4,5.00,0.00,29.3,28.5,00.0,38.3,31.2,11.4,0000.7,0014.31,0007.26,0006.27
2021-09-27 02:01:00,,0825.5,4.99,0.00,29.4,28.6,00.0,38.3,31.3,11.4,0001.2,0013.92,0007.22,0006.27
2021-09-27 02:02:00,,0825.5,5.00,0.00,29.5,28.7,00.0,38.3,31.3,11.4,0001.5,0013.76,0007.17,0006.25
2021-09-27 02:03:00,,0825.4,5.00,0.00,29.5,28.2,00.0,38.4,31.2,11.4,0001.7,0013.39,0007.20,0006.25
2021-09-27 02:04:00,,0825.5,4.99,0.00,29.3,26.1,00.0,38.3,30.7,11.5,0001.9,0013.28,0007.22,0006.26
2021-09-27 02:05:00,,0825.5,4.99,0.00,29.2,25.2,00.0,38.3,30.4,11.6,0001.6,0014.32,0007.23,0006.25
2021-09-27 02:06:00,,0825.4,5.00,0.00,29.1,25.5,00.0,38.3,30.5,11.7,0001.2,0014.39,0007.24,0006.24
2021-09-27 02:07:00,,0825.5,5.01,0.00,29.0,26.0,00.0,38.2,30.5,11.7,0001.3,0014.44,0007.25,0006.22
2021-09-27 02:08:00,,0825.5,5.00,0.00,29.0,26.5,00.0,38.2,30.6,11.7,0001.7,0013.96,0007.24,0006.18
2021-09-27 02:09:00,,0825.5,4.98,0.00,29.0,26.9,00.0,38.2,30.7,11.7,0002.1,0013.76,0007.18,0006.16
2021-09-27 02:10:00,,0825.4,5.01,0.00,29.0,27.3,00.0,38.2,30.8,11.6,0002.1,0013.68,0007.23,0006.14
2021-09-27 02:11:00,,0825.5,5.00,0.00,29.1,27.6,00.0,38.2,30.9,11.6,0001.8,0013.47,0007.22,0006.13
2021-09-27 02:12:00,,0825.5,5.01,0.00,29.1,27.8,00.0,38.2,31.0,11.6,0001.4,0013.85,0007.23,0006.10
2021-09-27 02:13:00,,0825.5,4.99,0.00,29.2,28.0,00.0,38.2,31.0,11.6,0001.6,0014.18,0007.23,0006.09
2021-09-27 02:14:00,,0825.5,4.99,0.00,29.2,28.2,00.0,38.2,31.1,11.5,0001.4,0014.34,0007.24,0006.06
2021-09-27 02:15:00,,0825.5,5.01,0.00,29.3,28.3,00.0,38.2,31.1,11.5,0001.7,0013.88,0007.19,0006.02
2021-09-27 02:16:00,,0825.5,5.01,0.00,29.3,28.5,00.0,38.2,31.2,11.4,0001.6,0013.00,0007.18,0005.99
2021-09-27 02:17:00,,0825.5,5.01,0.00,29.4,28.6,00.0,38.3,31.2,11.4,0001.4,0012.86,0007.22,0005.96
2021-09-27 02:18:00,,0825.6,5.00,0.00,29.4,28.6,00.0,38.3,31.3,11.4,0001.3,0012.71,0007.20,0005.93
2021-09-27 02:19:00,,0825.6,5.00,0.00,29.5,28.7,00.0,38.3,31.3,11.3,0000.5,0013.53,0007.18,0005.91
2021-09-27 02:20:00,,0825.6,4.99,0.00,29.5,28.8,00.0,38.4,31.4,11.3,0000.3,0014.34,0007.19,0005.90
2021-09-27 02:21:00,,0825.6,5.00,0.00,29.5,27.4,00.0,38.4,31.1,11.3,0000.7,0014.31,0007.09,0005.86
2021-09-27 02:22:00,,0825.6,5.00,0.00,29.3,26.2,00.0,38.4,30.7,11.4,0001.0,0014.25,0006.98,0005.83
2021-09-27 02:23:00,,0825.6,5.00,0.00,29.3,26.3,00.0,38.4,30.7,11.4,0001.7,0014.35,0006.89,0005.80
2021-09-27 02:24:00,,0825.6,5.00,0.00,29.2,26.7,00.0,38.3,30.8,11.4,0001.5,0013.90,0006.85,0005.76
2021-09-27 02:25:00,,0825.6,5.00,0.00,29.2,27.1,00.0,38.3,30.9,11.5,0001.7,0013.94,0006.75,0005.73
2021-09-27 02:26:00,,0825.5,4.98,0.00,29.2,27.4,00.0,38.3,31.0,11.5,0001.9,0013.90,0006.70,0005.69
2021-09-27 02:27:00,,0825.7,5.01,0.00,29.3,27.7,00.0,38.3,31.0,11.4,0002.0,0013.84,0006.65,0005.67
2021-09-27 02:28:00,,0825.6,4.99,0.00,29.3,28.0,00.0,38.3,31.1,11.4,0002.2,0013.94,0006.60,0005.66
2021-09-27 02:29:00,,0825.7,5.02,0.00,29.3,28.2,00.0,38.3,31.1,11.4,0002.5,0014.50,0006.62,0005.65
2021-09-27 02:30:00,,0825.6,4.99,0.00,29.4,28.3,00.0,38.3,31.2,11.4,0003.0,0013.77,0006.59,0005.62
2021-09-27 02:31:00,,0825.6,4.98,0.00,29.4,28.4,00.0,38.4,31.2,11.4,0002.8,0013.78,0006.57,0005.60
2021-09-27 02:32:00,,0825.6,5.01,0.00,29.5,28.6,00.0,38.4,31.3,11.4,0002.2,0014.73,0006.58,0005.60
2021-09-27 02:33:00,,0825.7,4.99,0.00,29.5,28.7,00.0,38.4,31.4,11.4,0001.8,0014.77,0006.60,0005.59
2021-09-27 02:34:00,,0825.7,5.00,0.00,29.5,28.7,00.0,38.4,31.4,11.3,0001.2,0015.16,0006.64,0005.60
2021-09-27 02:35:00,,0825.6,5.00,0.00,29.6,28.2,00.0,38.5,31.3,11.3,0001.0,0015.11,0006.63,0005.62
2021-09-27 02:36:00,,0825.6,5.01,0.00,29.5,26.4,00.0,38.5,30.8,11.3,0001.2,0014.90,0006.66,0005.63
2021-09-27 02:37:00,,0825.7,4.99,0.00,29.3,26.2,00.0,38.4,30.8,11.4,0000.8,0015.46,0006.70,0005.63
2021-09-27 02:38:00,,0825.6,5.00,0.00,29.3,26.5,00.0,38.4,30.9,11.4,0000.6,0015.98,0006.73,0005.62
2021-09-27 02:39:00,,0825.6,5.01,0.00,29.3,26.9,00.0,38.4,30.9,11.4,0000.5,0015.74,0006.73,0005.62
2021-09-27 02:40:00,,0825.6,4.99,0.00,29.3,27.3,00.0,38.4,31.0,11.4,0000.7,0015.82,0006.69,0005.62
2021-09-27 02:41:00,,0825.6,5.01,0.00,29.3,27.6,00.0,38.4,31.0,11.4,0001.0,0015.90,0006.68,0005.63
2021-09-27 02:42:00,,0825.7,4.99,0.00,29.3,27.9,00.0,38.4,31.1,11.4,0001.3,0015.16,0006.67,0005.63
2021-09-27 02:43:00,,0825.7,5.00,0.00,29.4,28.1,00.0,38.4,31.1,11.4,0001.4,0014.46,0006.69,0005.61
2021-09-27 02:44:00,,0825.8,5.00,0.00,29.4,28.3,00.0,38.4,31.2,11.4,0002.0,0014.60,0006.66,0005.61
2021-09-27 02:45:00,,0825.7,5.00,0.00,29.4,28.4,00.0,38.4,31.2,11.3,0002.0,0014.19,0006.64,0005.59
2021-09-27 02:46:00,,0825.7,5.01,0.00,29.5,28.5,00.0,38.4,31.3,11.3,0002.1,0014.95,0006.68,0005.58
2021-09-27 02:47:00,,0825.7,5.01,0.00,29.5,28.6,00.0,38.5,31.3,11.2,0002.0,0015.29,0006.66,0005.56
2021-09-27 02:48:00,,0825.7,4.99,0.00,29.6,28.7,00.0,38.5,31.4,11.2,0002.7,0015.96,0006.66,0005.56
2021-09-27 02:49:00,,0825.7,4.99,0.00,29.6,27.9,00.0,38.5,31.2,11.3,0002.5,0016.29,0006.65,0005.57
2021-09-27 02:50:00,,0825.7,5.00,0.00,29.4,26.3,00.0,38.5,30.8,11.3,0002.6,0016.78,0006.64,0005.56
2021-09-27 02:51:00,,0825.7,5.01,0.00,29.3,26.2,00.0,38.5,30.8,11.3,0002.3,0016.58,0006.64,0005.55
2021-09-27 02:52:00,,0825.7,4.99,0.00,29.3,26.5,00.0,38.4,30.8,11.4,0002.2,0016.97,0006.64,0005.54
2021-09-27 02:53:00,,0825.8,5.00,0.00,29.2,26.9,00.0,38.4,30.9,11.4,0002.7,0017.34,0006.65,0005.54
2021-09-27 02:54:00,,0825.7,4.99,0.00,29.3,27.3,00.0,38.4,30.9,11.4,0003.2,0017.36,0006.68,0005.55
2021-09-27 02:55:00,,0825.8,5.00,0.00,29.3,27.6,00.0,38.4,31.0,11.4,0003.0,0017.05,0006.68,0005.55
2021-09-27 02:56:00,,0825.8,5.00,0.00,29.3,27.8,00.0,38.4,31.1,11.4,0003.0,0016.78,0006.70,0005.54
2021-09-27 02:57:00,,0825.9,5.00,0.00,29.3,28.0,00.0,38.4,31.1,11.3,0003.1,0017.50,0006.69,0005.54
2021-09-27 02:58:00,,0826.0,5.01,0.00,29.4,28.2,00.0,38.4,31.2,11.3,0002.9,0017.52,0006.70,0005.55
2021-09-27 02:59:00,,0825.8,5.01,0.00,29.4,28.4,00.0,38.4,31.3,11.3,0002.3,0016.27,0006.66,0005.54
